Location: Pian di Sc�
(43.6333°N, 11.5500°E)
Time: 13:09:46
(UTC+00:00)

USA 229 - Pass Details

Date: 07 August 2020
Orbit: 973 x 1239 km, 63.4° (Epoch: 22 September)

Event Time Altitude Azimuth Distance (km) Brightness Sun altitude
Exits shadow 02:48:45 18° 229° (SW) 2,225 4.7 -13.4°
Maximum altitude 02:53:41 69° 310° (NW) 1,095 3.7 -12.7°
Drops below altitude 10° 03:00:32 10° 34° (NNE) 2,916 7.2 -11.7°
Sets 03:03:18 0° 37° (NE) 3,916 8.3 -11.3°
